Daleville, AL

6:06 AM CST on February 25, 2017 (GMT -0600)
Cairns Army Air Field

Weather History for KOZR - March, 2014

Change the Weather History Date:

Tuesday, March 18, 2014

  Actual Average Record
Temperature  
Mean Temperature 54 °F -  
Max Temperature 61 °F 67 °F 86 °F (2012)
Min Temperature 46 °F 45 °F 35 °F (2007)
Degree Days  
Heating Degree Days 12    
Growing Degree Days 4 (Base 50)    
Moisture  
Dew Point 48 °F    
Average Humidity 92    
Maximum Humidity 100    
Minimum Humidity 67    
Precipitation  
Precipitation 0.16 in - - ()
Sea Level Pressure  
Sea Level Pressure 29.90 in    
Wind  
Wind Speed 6 mph (NNW)    
Max Wind Speed 9 mph    
Max Gust Speed -    
Visibility 7 miles    
Events Rain    
Averages and records for this station are not official NWS values.
T = Trace of Precipitation, MM = Missing Value Source: NWS Daily Summary

Daily Weather History Graph

Daily Weather History Graph

Search for Another Location

Airport or City:

Trip Planner

Search our weather history database for the weather conditions in past years. The results will help you decide how hot, cold, wet, or windy it might be!

Date:

Astronomy

Mar. 18, 2014 Rise Set
Actual Time 6:49 AM CDT 6:53 PM CDT
Civil Twilight 6:24 AM CDT 7:17 PM CDT
Nautical Twilight 5:56 AM CDT 7:45 PM CDT
Astronomical Twilight 5:28 AM CDT 8:13 PM CDT
Moon 8:59 PM CDT (3/18) 7:46 AM CDT (3/18)
Length of Visible Light 12h 52m
Length of Day
12h 03m
Waning Gibbous, 96% of the Moon is Illuminated
Mar 18
Waning Gibbous
Mar 23
Last Quarter
Mar 30
New
Apr 7
First Quarter
Apr 15
Full

Hourly Weather History & Observations

Time (CDT) Temp. Windchill Dew Point Humidity Pressure Visibility Wind Dir Wind Speed Gust Speed Precip Events Conditions
12:38 AM 48.2 °F - 48.2 °F 100% 29.82 in 7.0 mi WNW 6.9 mph - N/A Rain Light Rain
12:58 AM 48.4 °F - 47.3 °F 96% 29.82 in 7.0 mi North 8.1 mph - 0.11 in Rain Light Rain
1:08 AM 48.2 °F - 48.2 °F 100% 29.80 in 10.0 mi North 8.1 mph - N/A Rain Light Rain
1:13 AM 48.2 °F - 48.2 °F 100% 29.80 in 10.0 mi NNW 8.1 mph - N/A Rain Light Rain
1:18 AM 48.2 °F - 48.2 °F 100% 29.80 in 9.0 mi North 6.9 mph - N/A Rain Light Rain
1:21 AM 48.2 °F - 48.2 °F 100% 29.79 in 7.0 mi North 8.1 mph - N/A Rain Rain
1:26 AM 48.2 °F - 48.2 °F 100% 29.78 in 6.0 mi North 9.2 mph - N/A Rain Rain
1:58 AM 48.2 °F - 47.3 °F 97% 29.79 in 10.0 mi NNE 8.1 mph - 0.04 in Rain Light Rain
2:03 AM 48.2 °F - 46.4 °F 93% 29.77 in 10.0 mi NNE 8.1 mph - N/A Rain Light Rain
2:13 AM 48.2 °F - 48.2 °F 100% 29.76 in 10.0 mi ENE 8.1 mph - N/A   Overcast
2:18 AM 48.2 °F - 46.4 °F 93% 29.77 in 10.0 mi NE 4.6 mph - N/A   Overcast
2:58 AM 48.4 °F - 47.5 °F 97% 29.76 in 10.0 mi NW 8.1 mph - 0.00 in   Overcast
3:58 AM 48.0 °F - 47.3 °F 97% 29.80 in 4.0 mi WNW 5.8 mph - N/A   Overcast
4:08 AM 48.2 °F - 46.4 °F 93% 29.78 in 2.5 mi NW 4.6 mph - N/A   Overcast
4:33 AM 48.2 °F - 48.2 °F 100% 29.76 in 3.0 mi NNW 5.8 mph - N/A   Overcast
4:48 AM 48.2 °F - 48.2 °F 100% 29.79 in 2.5 mi NW 4.6 mph - N/A   Overcast
4:58 AM 48.0 °F - 47.5 °F 98% 29.80 in 2.0 mi NW 5.8 mph - N/A   Overcast
5:58 AM 47.8 °F - 47.3 °F 98% 29.84 in 2.5 mi WNW 4.6 mph - N/A   Overcast
6:09 AM 48.2 °F - 48.2 °F 100% 29.84 in 2.5 mi WNW 5.8 mph - N/A   Light Drizzle
6:19 AM 48.2 °F - 48.2 °F 100% 29.86 in 3.0 mi West 5.8 mph - N/A   Light Drizzle
6:24 AM 48.2 °F - 48.2 °F 100% 29.87 in 3.0 mi WNW 6.9 mph - N/A   Overcast
6:25 AM 48.2 °F - 48.2 °F 100% 29.87 in 3.0 mi West 8.1 mph - N/A   Light Drizzle
6:35 AM 48.2 °F - 46.4 °F 93% 29.87 in 3.0 mi WNW 4.6 mph - N/A   Light Drizzle
6:40 AM 48.2 °F - 46.4 °F 93% 29.88 in 2.5 mi NW 5.8 mph - N/A   Light Drizzle
6:45 AM 48.2 °F - 46.4 °F 93% 29.89 in 3.0 mi NW 5.8 mph - N/A   Light Drizzle
6:49 AM 48.2 °F - 46.4 °F 93% 29.89 in 3.0 mi WNW 5.8 mph - N/A   Overcast
6:59 AM 47.8 °F - 47.3 °F 98% 29.91 in 2.0 mi WNW 5.8 mph - 0.00 in   Overcast
7:04 AM 48.2 °F - 48.2 °F 100% 29.90 in 1.0 mi WNW 4.6 mph - N/A   Overcast
7:05 AM 48.2 °F - 48.2 °F 100% 29.90 in 1.0 mi WNW 5.8 mph - N/A Rain Light Rain
7:10 AM 48.2 °F - 48.2 °F 100% 29.90 in 1.5 mi NW 6.9 mph - N/A Rain Light Rain
7:15 AM 48.2 °F - 46.4 °F 93% 29.90 in 2.5 mi WNW 8.1 mph - N/A Rain Light Rain
7:20 AM 48.2 °F - 46.4 °F 93% 29.90 in 3.0 mi WNW 5.8 mph - N/A Rain Light Rain
7:32 AM 46.4 °F 43.5 °F 46.4 °F 100% 29.91 in 3.0 mi NW 5.8 mph - N/A   Overcast
7:58 AM 47.1 °F - 46.4 °F 97% 29.94 in 5.0 mi WNW 6.9 mph - 0.01 in   Overcast
8:58 AM 48.2 °F - 46.4 °F 93% 29.97 in 10.0 mi WNW 3.5 mph - N/A   Overcast
9:08 AM 48.2 °F - 46.4 °F 93% 29.96 in 10.0 mi WNW 3.5 mph - N/A   Overcast
9:23 AM 48.2 °F - 46.4 °F 93% 29.96 in 10.0 mi NNE 4.6 mph - N/A   Overcast
9:48 AM 48.2 °F - 46.4 °F 93% 29.97 in 10.0 mi NNW 1.2 mph - N/A   Overcast
9:58 AM 48.9 °F - 46.9 °F 93% 29.99 in 10.0 mi North 3.5 mph - N/A   Overcast
10:23 AM 50.0 °F - 48.2 °F 94% 29.98 in 10.0 mi NNE 5.8 mph - N/A   Overcast
10:58 AM 49.8 °F - 47.3 °F 91% 29.99 in 10.0 mi Calm Calm - N/A   Overcast
11:58 AM 51.1 °F - 48.4 °F 90% 29.98 in 10.0 mi NNE 3.5 mph - N/A   Overcast
12:08 PM 51.8 °F - 48.2 °F 88% 29.97 in 10.0 mi NE 5.8 mph - N/A   Overcast
12:28 PM 51.8 °F - 48.2 °F 88% 29.96 in 10.0 mi ENE 6.9 mph - N/A   Overcast
12:58 PM 53.4 °F - 48.4 °F 83% 29.97 in 10.0 mi Variable 2.3 mph - N/A   Overcast
1:38 PM 55.4 °F - 48.2 °F 77% 29.96 in 10.0 mi NNE 2.3 mph - N/A   Overcast
1:58 PM 55.6 °F - 48.4 °F 77% 29.96 in 10.0 mi North 5.8 mph - N/A   Overcast
2:58 PM 57.9 °F - 49.1 °F 72% 29.96 in 10.0 mi Variable 4.6 mph - N/A   Overcast
3:58 PM 61.5 °F - 50.5 °F 67% 29.96 in 10.0 mi ESE 6.9 mph - N/A   Overcast
4:58 PM 59.5 °F - 49.5 °F 69% 29.97 in 10.0 mi ESE 8.1 mph - N/A   Overcast
5:58 PM 58.6 °F - 49.5 °F 72% 29.97 in 10.0 mi SE 8.1 mph - N/A   Overcast
6:58 PM 56.1 °F - 48.4 °F 75% 29.99 in 10.0 mi Variable 3.5 mph - N/A   Mostly Cloudy
7:13 PM 55.4 °F - 48.2 °F 77% 29.99 in 10.0 mi SE 2.3 mph - N/A   Scattered Clouds
7:58 PM 53.8 °F - 49.1 °F 84% 30.02 in 10.0 mi East 1.2 mph - N/A   Clear
8:58 PM 51.4 °F - 48.4 °F 89% 30.03 in 10.0 mi East 3.5 mph - N/A   Clear
9:58 PM 52.0 °F - 48.9 °F 89% 30.04 in 10.0 mi East 3.5 mph - N/A   Overcast
10:38 PM 51.8 °F - 50.0 °F 94% 30.04 in 10.0 mi ESE 3.5 mph - N/A   Mostly Cloudy
10:48 PM 51.8 °F - 50.0 °F 94% 30.05 in 10.0 mi Variable 2.3 mph - N/A   Mostly Cloudy
10:58 PM 51.8 °F - 48.9 °F 90% 30.06 in 10.0 mi East 3.5 mph - N/A   Mostly Cloudy
11:58 PM 50.2 °F - 48.2 °F 93% 30.06 in 10.0 mi East 4.6 mph - N/A   Partly Cloudy